When you browse on this site, cookies collect data to enhance your experience and personalize the content and advertising you see.
Visit our Privacy Policy to learn more. By continuing to use the site, you agree to this use of cookies and data.
  • In United Kingdom
  • List of Countries
  • For 7 days
  • Water Temperature
  • Weather Map
  • Weather Widgets
  • user-avatar
    Login

    Hourly Weather Hajdunanas

    Today, 18 September, Wednesday

    Time Temperature Precipitation Wind Pressure Humidity
    00:00 +15°C° 0 mm 5 mps 751 mmHg 62%
    01:00 +14°C° 0 mm 4 mps 751 mmHg 67%
    02:00 +14°C° 0 mm 4 mps 751 mmHg 68%
    03:00 +13°C° 0 mm 4 mps 752 mmHg 69%
    04:00 +12°C° 0 mm 3 mps 752 mmHg 71%
    05:00 +12°C° 0 mm 4 mps 753 mmHg 65%
    06:00 +13°C° 0 mm 4 mps 753 mmHg 60%
    07:00 +13°C° 0 mm 5 mps 754 mmHg 54%
    08:00 +14°C° 0 mm 5 mps 755 mmHg 49%
    09:00 +15°C° 0 mm 5 mps 755 mmHg 43%
    10:00 +16°C° 0 mm 5 mps 755 mmHg 37%
    11:00 +18°C° 0 mm 4 mps 756 mmHg 35%
    12:00 +18°C° 0 mm 3 mps 756 mmHg 33%
    13:00 +19°C° 0 mm 2 mps 756 mmHg 31%
    14:00 +19°C° 0 mm 2 mps 756 mmHg 31%
    15:00 +19°C° 0 mm 2 mps 756 mmHg 31%
    16:00 +19°C° 0 mm 2 mps 756 mmHg 32%
    17:00 +17°C° 0 mm 2 mps 756 mmHg 37%
    18:00 +15°C° 0 mm 2 mps 756 mmHg 42%
    19:00 +13°C° 0 mm 1 mps 757 mmHg 47%
    20:00 +12°C° 0 mm 1 mps 757 mmHg 49%
    21:00 +12°C° 0 mm 2 mps 757 mmHg 52%
    22:00 +10°C° 0 mm 2 mps 757 mmHg 55%
    23:00 +10°C° 0 mm 1 mps 758 mmHg 57%

    Tomorrow, 19 September, Thursday

    Time Temperature Precipitation Wind Pressure Humidity
    00:00 +10°C° 0 mm 1 mps 758 mmHg 59%
    01:00 +9°C° 0 mm 1 mps 758 mmHg 61%
    02:00 +9°C° 0 mm 1 mps 758 mmHg 64%
    03:00 +9°C° 0 mm 1 mps 758 mmHg 66%
    04:00 +7°C° 0 mm 2 mps 758 mmHg 69%
    05:00 +8°C° 0 mm 2 mps 758 mmHg 66%
    06:00 +9°C° 0 mm 2 mps 758 mmHg 64%
    07:00 +10°C° 0 mm 3 mps 758 mmHg 62%
    08:00 +11°C° 0 mm 3 mps 758 mmHg 56%
    09:00 +13°C° 0 mm 4 mps 758 mmHg 51%
    10:00 +15°C° 0 mm 4 mps 759 mmHg 45%
    11:00 +15°C° 0 mm 4 mps 758 mmHg 42%
    12:00 +17°C° 0 mm 3 mps 758 mmHg 40%
    13:00 +17°C° 0 mm 3 mps 758 mmHg 37%
    14:00 +17°C° 0 mm 3 mps 758 mmHg 38%
    15:00 +17°C° 0 mm 3 mps 758 mmHg 38%
    16:00 +15°C° 0 mm 4 mps 758 mmHg 39%
    17:00 +14°C° 0 mm 3 mps 758 mmHg 43%
    18:00 +13°C° 0 mm 2 mps 759 mmHg 48%
    19:00 +11°C° 0 mm 1 mps 759 mmHg 52%
    20:00 +11°C° 0 mm 1 mps 759 mmHg 54%
    21:00 +10°C° 0 mm 1 mps 759 mmHg 56%
    22:00 +9°C° 0 mm 2 mps 760 mmHg 58%
    23:00 +8°C° 0 mm 2 mps 760 mmHg 60%

    Day after tomorrow, 20 September, Friday

    Time Temperature Precipitation Wind Pressure Humidity
    00:00 +9°C° 0 mm 1 mps 760 mmHg 62%
    01:00 +9°C° 0 mm 1 mps 760 mmHg 65%
    02:00 +8°C° 0 mm 1 mps 760 mmHg 66%
    03:00 +8°C° 0 mm 1 mps 760 mmHg 67%
    04:00 +8°C° 0 mm 1 mps 760 mmHg 68%
    05:00 +9°C° 0 mm 1 mps 760 mmHg 65%
    06:00 +9°C° 0 mm 1 mps 760 mmHg 62%
    07:00 +10°C° 0 mm 1 mps 760 mmHg 59%
    08:00 +12°C° 0 mm 2 mps 760 mmHg 52%
    09:00 +14°C° 0 mm 2 mps 761 mmHg 45%
    10:00 +16°C° 0 mm 3 mps 761 mmHg 39%
    11:00 +17°C° 0 mm 3 mps 761 mmHg 36%
    12:00 +18°C° 0 mm 3 mps 760 mmHg 33%
    13:00 +18°C° 0 mm 3 mps 760 mmHg 30%
    14:00 +18°C° 0 mm 2 mps 760 mmHg 31%
    15:00 +18°C° 0 mm 2 mps 760 mmHg 32%
    16:00 +18°C° 0 mm 2 mps 759 mmHg 32%
    17:00 +16°C° 0 mm 1 mps 760 mmHg 37%
    18:00 +14°C° 0 mm 1 mps 760 mmHg 42%
    19:00 +11°C° 0 mm 0 mps 761 mmHg 46%
    20:00 +11°C° 0 mm 0 mps 761 mmHg 47%
    21:00 +11°C° 0 mm 1 mps 761 mmHg 48%
    22:00 +11°C° 0 mm 1 mps 761 mmHg 49%
    23:00 +10°C° 0 mm 1 mps 761 mmHg 51%

    21 September, Saturday

    Time Temperature Precipitation Wind Pressure Humidity
    00:00 +10°C° 0 mm 1 mps 761 mmHg 53%
    01:00 +9°C° 0 mm 1 mps 761 mmHg 54%
    02:00 +9°C° 0 mm 1 mps 761 mmHg 57%
    03:00 +8°C° 0 mm 1 mps 761 mmHg 59%
    04:00 +8°C° 0 mm 1 mps 761 mmHg 62%
    05:00 +9°C° 0 mm 1 mps 761 mmHg 60%
    06:00 +10°C° 0 mm 1 mps 761 mmHg 58%
    07:00 +11°C° 0 mm 1 mps 761 mmHg 56%
    08:00 +13°C° 0 mm 1 mps 761 mmHg 50%
    09:00 +15°C° 0 mm 1 mps 761 mmHg 44%
    10:00 +18°C° 0 mm 1 mps 761 mmHg 38%
    11:00 +19°C° 0 mm 1 mps 761 mmHg 36%
    12:00 +20°C° 0 mm 1 mps 760 mmHg 33%
    13:00 +21°C° 0 mm 1 mps 760 mmHg 31%
    14:00 +21°C° 0 mm 1 mps 760 mmHg 31%
    15:00 +21°C° 0 mm 1 mps 760 mmHg 32%
    16:00 +21°C° 0 mm 1 mps 759 mmHg 32%
    17:00 +19°C° 0 mm 1 mps 759 mmHg 36%
    18:00 +16°C° 0 mm 1 mps 759 mmHg 41%
    19:00 +14°C° 0 mm 1 mps 759 mmHg 45%
    20:00 +14°C° 0 mm 2 mps 759 mmHg 47%
    21:00 +13°C° 0 mm 2 mps 759 mmHg 49%
    22:00 +12°C° 0 mm 2 mps 759 mmHg 52%
    23:00 +12°C° 0 mm 2 mps 759 mmHg 52%

    22 September, Sunday

    Time Temperature Precipitation Wind Pressure Humidity
    00:00 +12°C° 0 mm 2 mps 759 mmHg 53%
    01:00 +10°C° 0 mm 2 mps 759 mmHg 54%
    02:00 +10°C° 0 mm 2 mps 759 mmHg 55%
    03:00 +9°C° 0 mm 2 mps 758 mmHg 56%
    04:00 +9°C° 0 mm 2 mps 758 mmHg 57%
    05:00 +9°C° 0 mm 2 mps 758 mmHg 56%
    06:00 +10°C° 0 mm 2 mps 758 mmHg 54%
    07:00 +12°C° 0 mm 2 mps 757 mmHg 53%
    08:00 +15°C° 0 mm 1 mps 757 mmHg 46%
    09:00 +18°C° 0 mm 1 mps 757 mmHg 39%
    10:00 +21°C° 0 mm 1 mps 757 mmHg 32%
    11:00 +21°C° 0 mm 2 mps 756 mmHg 29%
    12:00 +24°C° 0 mm 2 mps 756 mmHg 26%
    13:00 +25°C° 0 mm 2 mps 755 mmHg 22%
    14:00 +25°C° 0 mm 2 mps 754 mmHg 24%
    15:00 +25°C° 0 mm 2 mps 754 mmHg 25%
    16:00 +25°C° 0 mm 2 mps 753 mmHg 26%
    17:00 +24°C° 0 mm 1 mps 753 mmHg 27%
    18:00 +23°C° 0 mm 1 mps 753 mmHg 27%
    19:00 +21°C° 0 mm 1 mps 753 mmHg 28%
    20:00 +20°C° 0 mm 2 mps 753 mmHg 28%
    21:00 +20°C° 0 mm 2 mps 753 mmHg 28%
    22:00 +20°C° 0 mm 3 mps 753 mmHg 27%
    23:00 +20°C° 0 mm 3 mps 752 mmHg 28%

    23 September, Monday

    Time Temperature Precipitation Wind Pressure Humidity
    00:00 +20°C° 0 mm 3 mps 752 mmHg 29%
    01:00 +19°C° 0 mm 3 mps 752 mmHg 30%
    02:00 +19°C° 0 mm 3 mps 751 mmHg 31%
    03:00 +19°C° 0 mm 3 mps 751 mmHg 32%
    04:00 +18°C° 0 mm 3 mps 751 mmHg 34%
    05:00 +18°C° 0 mm 3 mps 751 mmHg 36%
    06:00 +18°C° 0 mm 3 mps 750 mmHg 38%
    07:00 +19°C° 0 mm 2 mps 750 mmHg 40%
    08:00 +20°C° 0 mm 3 mps 750 mmHg 42%
    09:00 +22°C° 0 mm 3 mps 750 mmHg 45%
    10:00 +25°C° 0 mm 3 mps 750 mmHg 47%
    11:00 +25°C° 0 mm 3 mps 750 mmHg 46%
    12:00 +26°C° 0 mm 3 mps 749 mmHg 46%
    13:00 +27°C° 0 mm 3 mps 749 mmHg 45%
    14:00 +27°C° 0 mm 3 mps 749 mmHg 45%
    15:00 +27°C° 0 mm 3 mps 749 mmHg 44%
    16:00 +27°C° 0 mm 2 mps 749 mmHg 44%
    17:00 +25°C° 0 mm 2 mps 749 mmHg 47%
    18:00 +24°C° 0 mm 3 mps 749 mmHg 50%
    19:00 +21°C° 0 mm 3 mps 749 mmHg 53%
    20:00 +20°C° 0 mm 3 mps 749 mmHg 56%
    21:00 +20°C° 0 mm 3 mps 749 mmHg 59%
    22:00 +19°C° 0 mm 3 mps 749 mmHg 62%
    23:00 +19°C° 0 mm 3 mps 749 mmHg 66%
    Show more